Location: Unspecified
(0.0000°N, 0.0000°E)
Time: 04:37:50
(UTC+00:00)

Tiros 1 - Visible Passes

Search period start: 18 June 2019 00:00
Search period end: 28 June 2019 00:00
Orbit: 631 x 664 km, 48.4° (Epoch: 17 June)

Date Brightness Start Highest point End Pass type
(mag) Time Alt. Az. Time Alt. Az. Time Alt. Az.
21 Jun 9.6 19:51:27 10° SSW 19:51:38 11° SSW 19:51:38 11° SSW visible
22 Jun 8.9 18:37:39 10° SSE 18:39:58 13° SE 18:41:43 11° ESE visible
22 Jun 9.0 20:17:25 10° SW 20:19:37 25° WSW 20:19:37 25° WSW visible
23 Jun 7.5 19:01:32 10° SSW 19:06:03 42° SE 19:10:33 10° ENE visible
23 Jun 9.9 20:45:15 10° W 20:48:06 16° NW 20:49:22 14° NNW visible
24 Jun 7.8 19:27:21 10° SW 19:32:04 57° NW 19:36:43 10° NNE visible
25 Jun 10.0 19:54:54 10° W 19:58:06 18° NW 20:01:17 10° N visible
26 Jun 7.7 18:37:18 10° SW 18:42:04 65° NW 18:46:47 10° NNE visible
27 Jun 10.1 05:09:50 10° N 05:12:56 18° NE 05:16:01 10° E visible
27 Jun 10.0 19:04:36 10° W 19:08:06 20° NW 19:11:34 10° N visible
